Weather History for Roseau, MN

Change the Weather History Date:

Friday, May 24, 2013

  Actual Average Record
Temperature  
Mean Temperature 53 °F -  
Max Temperature 69 °F 69 °F 89 °F (1980)
Min Temperature 37 °F 43 °F 27 °F (1949)
Degree Days  
Heating Degree Days 12    
Growing Degree Days 3 (Base 50)    
Moisture  
Dew Point 37 °F    
Average Humidity 54    
Maximum Humidity 87    
Minimum Humidity 26    
Precipitation  
Precipitation 0.00 in - - ()
Sea Level Pressure  
Sea Level Pressure 30.25 in    
Wind  
Wind Speed 4 mph (SSE)    
Max Wind Speed 14 mph    
Max Gust Speed 20 mph    
Visibility 10 miles    
Events Rain    
Averages and records for this station are not official NWS values.
T = Trace of Precipitation, MM = Missing Value Source: NWS Daily Summary

Daily Weather History Graph

Daily Weather History Graph

Search for Another Location

Airport:

Trip Planner

Search our weather history database for the weather conditions in past years. The results will help you decide how hot, cold, wet, or windy it might be!

Date:

Astronomy

May. 24, 2013 Rise Set
Actual Time 5:30 AM CDT 9:09 PM CDT
Civil Twilight 4:50 AM CDT 9:49 PM CDT
Nautical Twilight 3:56 AM CDT 10:43 PM CDT
Astronomical Twilight 2:41 AM CDT 12:01 AM CDT
Moon 8:50 PM CDT (5/24) 5:08 AM CDT (5/24)
Length of Visible Light 16h 59m
Length of Day
15h 39m
Full, 100% of the Moon is Illuminated
May 24
Full
May 24
Full
May 31
Last Quarter
Jun 8
New
Jun 16
First Quarter

Hourly Weather History & Observations

Time (CDT) Temp. Windchill Dew Point Humidity Pressure Visibility Wind Dir Wind Speed Gust Speed Precip Events Conditions
12:14 AM 44.6 °F - 33.8 °F 66% 30.32 in 10.0 mi Calm Calm - N/A   Clear
12:34 AM 42.8 °F - 33.8 °F 70% 30.31 in 10.0 mi Calm Calm - N/A   Clear
12:54 AM 44.6 °F 41.4 °F 33.8 °F 66% 30.31 in 10.0 mi East 5.8 mph - N/A   Clear
1:14 AM 42.8 °F 40.1 °F 35.6 °F 76% 30.31 in 10.0 mi ENE 4.6 mph - N/A   Clear
1:34 AM 42.8 °F - 35.6 °F 76% 30.31 in 10.0 mi Calm Calm - N/A   Clear
1:54 AM 41.0 °F - 33.8 °F 76% 30.31 in 10.0 mi Calm Calm - N/A   Clear
2:14 AM 41.0 °F - 33.8 °F 76% 30.31 in 10.0 mi Calm Calm - N/A   Clear
2:34 AM 39.2 °F - 33.8 °F 81% 30.31 in 10.0 mi Calm Calm - N/A   Clear
2:54 AM 39.2 °F - 33.8 °F 81% 30.31 in 10.0 mi Calm Calm - N/A   Clear
3:14 AM 39.2 °F - 33.8 °F 81% 30.31 in 10.0 mi Calm Calm - N/A   Clear
3:34 AM 39.2 °F - 33.8 °F 81% 30.31 in 10.0 mi Calm Calm - N/A   Clear
3:54 AM 39.2 °F - 33.8 °F 81% 30.30 in 10.0 mi Calm Calm - N/A   Clear
4:15 AM 39.2 °F - 33.8 °F 81% 30.29 in 10.0 mi Calm Calm - N/A   Clear
4:34 AM 42.8 °F - 33.8 °F 70% 30.29 in 10.0 mi Calm Calm - N/A   Clear
4:54 AM 41.0 °F - 32.0 °F 70% 30.29 in 10.0 mi Calm Calm - N/A   Clear
5:14 AM 41.0 °F - 33.8 °F 76% 30.28 in 10.0 mi Calm Calm - N/A   Clear
5:34 AM 37.4 °F - 32.0 °F 81% 30.29 in 10.0 mi Calm Calm - N/A   Clear
5:55 AM 37.4 °F - 32.0 °F 81% 30.29 in 10.0 mi Calm Calm - N/A   Clear
6:14 AM 37.4 °F - 33.8 °F 87% 30.29 in 10.0 mi Calm Calm - N/A   Clear
6:34 AM 39.2 °F - 33.8 °F 81% 30.29 in 10.0 mi Calm Calm - N/A   Clear
6:55 AM 41.0 °F - 33.8 °F 76% 30.29 in 10.0 mi Calm Calm - N/A   Clear
7:14 AM 42.8 °F - 35.6 °F 76% 30.30 in 10.0 mi Calm Calm - N/A   Clear
7:34 AM 44.6 °F 43.1 °F 35.6 °F 71% 30.29 in 10.0 mi SE 3.5 mph - N/A   Clear
7:55 AM 46.4 °F - 37.4 °F 71% 30.29 in 10.0 mi Calm Calm - N/A   Clear
8:14 AM 50.0 °F - 37.4 °F 62% 30.30 in 10.0 mi Calm Calm - N/A   Clear
8:34 AM 53.6 °F - 39.2 °F 58% 30.30 in 10.0 mi South 6.9 mph - N/A   Clear
8:55 AM 55.4 °F - 39.2 °F 54% 30.30 in 10.0 mi South 10.4 mph - N/A   Clear
9:14 AM 57.2 °F - 39.2 °F 51% 30.30 in 10.0 mi SW 8.1 mph - N/A   Clear
9:34 AM 57.2 °F - 39.2 °F 51% 30.30 in 10.0 mi SSW 9.2 mph - N/A   Clear
9:54 AM 60.8 °F - 39.2 °F 45% 30.29 in 10.0 mi SW 8.1 mph - N/A   Clear
10:14 AM 60.8 °F - 39.2 °F 45% 30.29 in 10.0 mi SSW 8.1 mph - N/A   Clear
10:34 AM 60.8 °F - 37.4 °F 42% 30.28 in 10.0 mi SSW 6.9 mph - N/A   Clear
10:54 AM 62.6 °F - 39.2 °F 42% 30.28 in 10.0 mi South 9.2 mph - N/A   Clear
11:14 AM 64.4 °F - 37.4 °F 37% 30.27 in 10.0 mi South 9.2 mph - N/A   Clear
11:34 AM 64.4 °F - 37.4 °F 37% 30.26 in 10.0 mi South 11.5 mph - N/A   Clear
11:54 AM 64.4 °F - 37.4 °F 37% 30.26 in 10.0 mi South 4.6 mph - N/A   Clear
12:14 PM 64.4 °F - 37.4 °F 37% 30.26 in 10.0 mi South 9.2 mph - N/A   Clear
12:34 PM 64.4 °F - 37.4 °F 37% 30.25 in 10.0 mi SSE 10.4 mph - N/A   Clear
12:54 PM 66.2 °F - 35.6 °F 32% 30.24 in 10.0 mi South 12.7 mph 17.3 mph N/A   Clear
1:14 PM 66.2 °F - 37.4 °F 35% 30.24 in 10.0 mi South 11.5 mph - N/A   Clear
1:34 PM 66.2 °F - 35.6 °F 32% 30.23 in 10.0 mi SE 10.4 mph 19.6 mph N/A   Clear
1:54 PM 66.2 °F - 35.6 °F 32% 30.23 in 10.0 mi SE 11.5 mph - N/A   Clear
2:15 PM 66.2 °F - 33.8 °F 30% 30.21 in 10.0 mi South 9.2 mph - N/A   Clear
2:34 PM 68.0 °F - 32.0 °F 26% 30.21 in 10.0 mi South 5.8 mph - N/A   Clear
2:54 PM 69.8 °F - 35.6 °F 28% 30.20 in 10.0 mi SSE 8.1 mph 16.1 mph N/A   Clear
3:15 PM 68.0 °F - 39.2 °F 35% 30.20 in 10.0 mi East 13.8 mph - N/A   Clear
3:34 PM 66.2 °F - 39.2 °F 37% 30.20 in 10.0 mi ESE 10.4 mph - N/A   Clear
3:54 PM 66.2 °F - 37.4 °F 35% 30.20 in 10.0 mi ESE 10.4 mph 16.1 mph N/A   Clear
4:14 PM 66.2 °F - 37.4 °F 35% 30.20 in 10.0 mi ESE 8.1 mph - N/A   Clear
4:34 PM 66.2 °F - 39.2 °F 37% 30.20 in 10.0 mi ESE 9.2 mph 16.1 mph N/A   Clear
4:55 PM 66.2 °F - 32.0 °F 28% 30.19 in 10.0 mi SE 10.4 mph - N/A   Clear
5:14 PM 66.2 °F - 32.0 °F 28% 30.18 in 10.0 mi ESE 5.8 mph 16.1 mph N/A   Clear
5:34 PM 66.2 °F - 33.8 °F 30% 30.18 in 10.0 mi ESE 11.5 mph - N/A   Clear
5:55 PM 66.2 °F - 33.8 °F 30% 30.18 in 10.0 mi SSE 10.4 mph - N/A   Clear
6:14 PM 66.2 °F - 33.8 °F 30% 30.18 in 10.0 mi South 12.7 mph - N/A   Clear
6:34 PM 66.2 °F - 33.8 °F 30% 30.18 in 10.0 mi SSE 9.2 mph - N/A   Clear
6:54 PM 64.4 °F - 37.4 °F 37% 30.18 in 10.0 mi SE 6.9 mph - N/A   Clear
7:14 PM 64.4 °F - 37.4 °F 37% 30.17 in 10.0 mi SE 5.8 mph - N/A   Clear
7:35 PM 64.4 °F - 37.4 °F 37% 30.17 in 10.0 mi SE 4.6 mph - N/A   Clear
7:54 PM 62.6 °F - 37.4 °F 39% 30.18 in 10.0 mi ESE 3.5 mph - N/A   Clear
8:14 PM 62.6 °F - 42.8 °F 48% 30.18 in 10.0 mi ESE 3.5 mph - N/A   Clear
8:35 PM 62.6 °F - 39.2 °F 42% 30.18 in 10.0 mi SE 5.8 mph - N/A   Clear
8:54 PM 60.8 °F - 37.4 °F 42% 30.19 in 10.0 mi SSW 11.5 mph - N/A   Clear
9:14 PM 57.2 °F - 39.2 °F 51% 30.19 in 10.0 mi SSW 12.7 mph 17.3 mph N/A   Clear
9:34 PM 57.2 °F - 41.0 °F 55% 30.21 in 10.0 mi SW 8.1 mph - N/A   Clear
9:54 PM 55.4 °F - 44.6 °F 67% 30.21 in 10.0 mi SSW 6.9 mph - N/A Rain Light Rain
10:14 PM 53.6 °F - 44.6 °F 72% 30.22 in 10.0 mi South 8.1 mph - N/A   Clear
10:33 PM 53.6 °F - 44.6 °F 72% 30.22 in 10.0 mi South 5.8 mph - N/A   Mostly Cloudy
10:54 PM 53.6 °F - 44.6 °F 72% 30.23 in 10.0 mi SSW 4.6 mph - N/A   Scattered Clouds
11:14 PM 53.6 °F - 44.6 °F 72% 30.23 in 10.0 mi Calm Calm - N/A   Scattered Clouds
11:34 PM 53.6 °F - 44.6 °F 72% 30.22 in 10.0 mi Calm Calm - N/A   Scattered Clouds
11:54 PM 53.6 °F - 44.6 °F 72% 30.21 in 10.0 mi SE 5.8 mph - N/A   Scattered Clouds